User: anonymous   Login
Location: Unspecified
(0.0000°N, 0.0000°E)
Time: 10:34:54
(UTC+00:00)
Language:

Kosmos-1577 - Orbit

View from above orbital plane
View from above orbital plane
View from above satellite
View from above satellite

Ground track
Ground track

The orbit data is extracted from the following two-line orbital elements,

1 15077U 84067A   18173.72129760  .00000026  00000-0  11076-4 0  9996
2 15077  82.9562 204.2215 0034828 220.1952 277.7207 13.75413527452782
Epoch (UTC): 22 June 2018 17:18:40
Eccentricity: 0.0034828
inclination: 82.9562°
perigee height: 954 km
apogee height: 1006 km
right ascension of ascending node: 204.2215°
argument of perigee: 220.1952°
revolutions per day: 13.75413527
mean anomaly at epoch: 277.7207°
orbit number at epoch: 45278

The dashed part of the orbit path shows where the satellite is in the earth's shadow,  

DLR